Regional Weather Roundup
Issued by NWS

Home | Current Version | Previous Version | Graphics & Text | Print | Product List | Glossary On
Versions: 1 2 3 4 5 6 7 8 9 10 11 12 13 14 15 16 17 18 19 20 21 22 23 24 25 26 27 28 29 30 31 32 33 34 35 36 37 38 39 40 41 42 43 44 45 46 47 48 49 50
000
ASUS43 KLSX 292057
RWRMO

WEATHER SUMMARY FOR MISSOURI
NATIONAL WEATHER SERVICE SPRINGFIELD MO
400 PM CDT SUN MAY 29 2016

NOTE: "FAIR" INDICATES FEW OR NO CLOUDS BELOW 12,000 FEET WITH NO
       SIGNIFICANT WEATHER AND/OR OBSTRUCTIONS TO VISIBILITY.
       CURRENT SKY AND/OR WEATHER CONDITIONS ARE NOT AVAILABLE FOR
       CHILLICOTHE AND FARMINGTON.

MOZ001>031-035>038-043-044-053-054-292200-
...NORTHERN AND WESTERN MISSOURI...

CITY           SKY/WX    TMP DP  RH WIND       PRES   REMARKS
KANSAS CTY INT MOSUNNY   84  58  40 SW8       30.07F
LEE`S SUMMIT   MOSUNNY   84  57  39 SW6       30.08F
ST JOSEPH      SUNNY     87  57  35 SW13G20   30.04F
CHILLICOTHE      N/A     85  60  42 SW6       30.07F

$$
MOZ066>068-077>081-088>096-101>105-292200-
...SOUTHWEST MISSOURI...

CITY           SKY/WX    TMP DP  RH WIND       PRES   REMARKS
SPRINGFIELD    SUNNY     84  60  44 W6        30.09F
JOPLIN         CLOUDY    84  63  49 NW5       30.08F
BRANSON        PTSUNNY   81  66  61 CALM      30.14F

$$
MOZ032>034-039>042-045>050-055>058-069>072-292200-
...CENTRAL MISSOURI...

CITY           SKY/WX    TMP DP  RH WIND       PRES   REMARKS
COLUMBIA       NOT AVBL
JEFFERSON CITY MOSUNNY   84  57  39 W9        30.07F
ROLLA          MOSUNNY   83  62  49 N8        30.09F
SEDALIA        SUNNY     84  58  40 VRB3      30.10F
WARRENSBURG    SUNNY     82  57  42 SW3       30.08F

$$
MOZ051-052-059>065-292200-
...EAST CENTRAL MISSOURI...

CITY           SKY/WX    TMP DP  RH WIND       PRES   REMARKS
ST LOUIS INTL  PTSUNNY   88  55  32 W9        30.08F

$$
MOZ072>076-082>087-097>100-106>115-292200-
...SOUTH CENTRAL AND SOUTHEAST MISSOURI...

CITY           SKY/WX    TMP DP  RH WIND       PRES   REMARKS
CAPE GIRARDEAU MOSUNNY   84  60  44 N5        30.06F
POPLAR BLUFF   PTSUNNY   86  63  45 NW9G17    30.07F
WEST PLAINS    CLOUDY    82  61  48 CALM      30.13F

$$


USA.gov is the U.S. government's official web portal to all federal, state and local government web resources and services.